www.pogodaiklimat.ru

Погода и климат >> Архив погоды >> Латвия >> Бауска


ПОГОДА в Бауске

  • Прогноз погоды в Бауске
  • Монитор погоды в Бауске

АРХИВ ПОГОДЫ в Бауске

Время (UTC), дата Ветер
(напр.,м/с)
 
Видим.   Явления Облачность Т
(С)
Тd
(С)
f
(%)
Тe
(С)
Тes
(С)
Комфортность P
(гПа)
Po
(гПа)
Тmin
(С)
Tmax
(С)
R
(мм)
R24
(мм)
S
(см)
03 11.06 В 2 н/о н/о +16.1 +12.3 78 +16 +16 1019.7 1016.1
06 11.06 В 3 н/о н/о +18.7 +15.1 80 +20 +20 1019.4 1015.8
09 11.06 В 4 н/о н/о +25.5 +19.1 68 +31 +31 очень
душно
1018.8 1015.3
12 11.06 ЮВ 4 н/о н/о +28.1 +20.1 62 +34 +34 очень
душно
1017.3 1013.8
15 11.06 ЮВ 4 н/о н/о +28.3 +19.7 60 +34 +34 очень
душно
1015.4 1012.0
18 11.06 ЮВ 2 н/о н/о +24.9 +21.6 82 +32 +32 очень
душно
1014.9 1011.4
21 11.06 З 2 н/о н/о +20.2 +18.5 90 +24 +24 комфорт 1014.7 1011.1
00 12.06 СЗ 2 н/о н/о +17.2 +16.7 97 +18 +18 1015.9 1012.3
03 12.06 С 2 н/о н/о +17.1 +16.7 97 +17 +17 1015.7 1012.1
06 12.06 н/о н/о +23.1 +19.7 81 1015.8 1012.2
09 12.06 СВ 3 н/о н/о +27.2 +21.5 71 +35 +35 очень
душно
1015.8 1012.3
12 12.06 В 2 н/о н/о +29.7 +21.4 61 +38 +38 очень
душно
1015.3 1011.9
18 12.06 В 6 н/о н/о +22.5 +18.4 78 +28 +28 душно 1015.4 1011.9
21 12.06 В 6 н/о н/о +20.1 +17.3 84 +23 +23 комфорт 1016.1 1012.5
00 13.06 В 5 н/о н/о +19.3 +17.3 88 +21 +21 комфорт 1015.9 1012.3
03 13.06 В 4-6
{7}
19 км н/о +19.0 +18.0 94 +21 +21 комфорт 1015.0 1011.4 0.1
06 13.06 ЮВ 5-7
{7}
19 км н/о +24.2 +20.7 81 +30 +30 очень
душно
1015.2 1011.5
09 13.06 ЮВ 5-7
{8}
20 км н/о +28.4 +22.6 71 +38 +38 очень
душно
1015.5 1012.0
12 13.06 Ю 5-8
{9}
19 км н/о +30.8 +18.1 47 +35 +35 очень
душно
1014.0 1010.4
15 13.06 ЮВ 7-12
{12}
19 км н/о +28.0 +19.7 61 +34 +34 очень
душно
1013.2 1009.5
18 13.06 СЗ 3-5
{12}
20 км н/о +20.3 +17.5 84 +24 +24 комфорт 1016.4 1012.9
21 13.06 Ю 4-6
{6}
20 км н/о +18.9 +17.3 90 +20 +20 1016.3 1012.5
00 14.06 Ю 2-2
{3}
12 км н/о +16.4 +16.0 97 +16 +16 1016.7 1012.9
03 14.06 Ю 2-2
{3}
11 км н/о +17.2 +16.6 96 +18 +18 1017.4 1013.6
06 14.06 ЮЗ 3-6
{6}
20 км н/о +20.8 +17.9 83 +25 +25 комфорт 1017.0 1013.2
09 14.06 З 2-3
{4}
17 км н/о +20.1 +17.8 87 +24 +24 комфорт 1018.4 1014.6
12 14.06 СЗ 4-5
{5}
20 км н/о +21.5 +17.8 79 +26 +26 душно 1019.5 1015.7
15 14.06 С 3-6
{6}
20 км н/о +22.6 +15.4 64 +27 +27 душно 1020.0 1016.2
18 14.06 штиль 0-1
{3}
20 км н/о +19.7 +16.1 80 +22 +22 комфорт 1019.4 1015.6
21 14.06 С 1-2
{2}
20 км н/о +15.3 +12.5 83 +16 +16 1021.1 1017.2
00 15.06 СЗ 2-3
{3}
20 км н/о +11.9 +10.1 89 +11 +11 1020.7 1016.8
03 15.06
{4}
10 км н/о +13.2 +12.7 97 1021.1 1017.2
06 15.06 С 1-3
{3}
20 км н/о +15.7 +12.7 82 +16 +16 1021.3 1017.4
09 15.06 С 2-3
{4}
20 км н/о +20.5 +12.7 61 +23 +23 комфорт 1020.8 1017.0
12 15.06 С 2-5
{5}
20 км н/о +23.6 +11.6 47 +25 +25 комфорт 1019.5 1015.7
18 15.06 СВ 2-2
{4}
20 км н/о +21.1 +11.4 54 +23 +23 комфорт 1017.6 1014.1
21 15.06 СВ 1-2
{3}
20 км н/о +14.3 +9.7 74 +15 +15 1017.1 1013.2
00 16.06 В 2-2
{3}
20 км н/о +14.3 +10.6 78 +14 +14 1016.7 1012.8
03 16.06 ЮВ 1-2
{2}
20 км н/о +14.0 +11.8 87 +14 +14 1016.7 1012.8
06 16.06 В 4-5
{6}
20 км н/о +18.5 +14.3 77 +19 +19 1015.4 1011.6
09 16.06 ЮВ 4-7
{7}
20 км н/о +20.3 +14.4 69 +23 +23 комфорт 1014.9 1011.1
12 16.06 ЮВ 3-5
{6}
20 км н/о +20.2 +14.5 70 +23 +23 комфорт 1015.4 1011.6
15 16.06 В 2-3
{5}
20 км н/о +19.6 +16.2 81 +22 +22 комфорт 1014.6 1010.8
18 16.06 В 2-3
{3}
20 км н/о +17.8 +16.6 93 +18 +18 1014.2 1010.4 0.3
21 16.06 ЮВ 2-3
{3}
20 км н/о +17.3 +16.1 93 +18 +18 1014.0 1010.2 0.1
00 17.06 ЮЗ 4-5
{5}
5000 м н/о +17.1 +17.0 99 +17 +17 1014.2 1010.6 0.1
03 17.06 Ю 2-3
{3}
10 км н/о +16.7 +16.3 97 +17 +17 1014.0 1010.2 0.1
06 17.06 ЮЗ 2-3
{4}
19 км н/о +19.1 +16.1 83 +21 +21 комфорт 1014.4 1010.6
09 17.06 З 2-4
{4}
5000 м н/о +18.1 +17.6 97 +19 +19 1015.2 1011.6
12 17.06 СЗ 5-8
{9}
16 км н/о +17.1 +16.2 94 +16 +16 1016.7 1012.9 0.1
15 17.06 СЗ 4-7
{7}
20 км н/о +21.1 +15.5 70 +24 +24 комфорт 1017.5 1013.9
18 17.06 -4
{4}
20 км н/о +20.0 +15.1 73 1017.7 1013.9
21 17.06 З 2 20 км н/о +14.5 +12.6 88 +14 +14 1019.0 1015.1

 

Местоположение метеостанции Бауска (Латвия): широта 56.40 долгота 24.22 высота над уровнем моря 33 м.

В архиве по умолчанию представлена погода в Бауске за последнюю неделю. Архивные данные за месяц целиком и за предыдущие месяцы, начиная с января 2011 года, Вы можете получить, выбрав интересующий диапазон дат из раскрывающегося списка и нажав кнопку "Ввод!".


*Определитесь, кто Вы:
робот инопланетянин человек

Внимание! Время в таблицах - всемирное. Для получения местного времени необходимо прибавить поправку, которая равна 2 ч.

Смотрите также архив погоды в соседних городах и на ближайших метеорологических станциях:

Погода в Биржае (Литва) (41 км)
Погода в Елгаве (Латвия) (41 км)
Погода в Добеле (Латвия) (60 км)
Погода в Скриверу (Латвия) (62 км)
Погода в Риге (Латвия) (64 км)
Погода в Паневежисе (Литва) (74 км)
Погода в Шяуляе (Литва) (76 км)
Погода в Скульте (Латвия) (103 км)
Погода в Зилани (Латвия) (105 км)
Погода в Салдусе (Латвия) (110 км)

Пояснения к столбцам:

Ветер - указаны скорость ветра в м/с - средняя за 10 мин, порывы в срок и между сроками (в фигурных скобках) и направление, откуда дует ветер: С - северный, СВ - северо-восточный, В - восточный, ЮВ - юго-восточный, Ю - южный, ЮЗ - юго-западный, З - западный, СЗ - северо-западный.
Видимость - горизонтальная дальность видимости в метрах или километрах. При видимости от 1 до 10 км при отсутствии осадков обычно наблюдается дымка, при ухудшении видимости до 1 км и менее - туман. В сухую погоду видимость может ухудшаться дымом, пылью или мглою.
Явления - указаны атмосферные явления, наблюдавшиеся в срок или в последний час перед сроком; фигурными скобками обозначены явления, наблюдавшиеся между сроками (за 1-3 часа до срока); квадратными скобками обозначены град или гололедные отложения с указанием их диаметра в мм.
Облачность - указаны через наклонную черту общая и нижняя облачность в баллах и высота нижней границы облаков в метрах; квадратными скобками обозначены формы облаков: Ci - перистые, Cs - перисто-слоистые, Cc - перисто-кучевые, Ac - высококучевые, As - высокослоистые, Sc - слоисто-кучевые, Ns - слоисто-дождевые, Cu - кучевые, Cb - кучево-дождевые. Подробнее классификацию облаков см. в Атласе облаков (PDF).
T - Температура воздуха - температура, измеренная на высоте 2 м над землей.
Td - Температура точки росы - температура, при понижении до которой содержащийся в воздухе водяной пар достигнет насыщения.
f - Относительная влажность воздуха - влажноcть воздуха, измеренная на высоте 2 м над землей.
Te - Эффективная температура - температура, которую ощущает одетый по сезону человек в тени. Характеристика душности погоды. При расчете учитывается влияние влажности воздуха и скорости ветра на теплоощущения человека.
Tes - Эффективная температура на солнце - температура, которую ощущает человек, с поправкой на солнечный нагрев. Характеристика знойности погоды. Зависит от высоты солнца над горизонтом, облачности и скорости ветра. Ночью, в пасмурную погоду, а также при ветре 12 м/с и более поправка равна нулю.
P - Атмосферное давление - приведенное к уровню моря атмосферное давление.
Po - Атмосферное давление - измеренное на уровне метеостанции атмосферное давление.
Tmin - Минимальная температура - минимум температуры воздуха на высоте 2 м над землей.
Tmax - Максимальная температура - максимум температуры воздуха на высоте 2 м над землей.
R - Количество осадков - Количество выпавших осадков за период времени, мм. При наведении курсора мыши на число - период времени, за который выпало указанное количество осадков.
R24 - Количество осадков - Количество выпавших осадков за 24 часа, мм.
S - Снежный покров - Высота снежного покрова, см. При наведении курсора мыши на число - состояние снежного покрова и степень покрытия местности в баллах.